Regional Weather Roundup
Issued by NWS

Home | Current Version | Previous Version | Graphics & Text | Print | Product List | Glossary On
Versions: 1 2 3 4 5 6 7 8 9 10 11 12 13 14 15 16 17 18 19 20 21 22 23 24 25 26 27 28 29 30 31 32 33 34 35 36 37 38 39 40 41 42 43 44 45 46 47 48 49 50
000
ASUS43 KLSX 040559
RWRMO

WEATHER SUMMARY FOR MISSOURI
NATIONAL WEATHER SERVICE SPRINGFIELD MO
100 AM CDT SAT JUL 04 2015

NOTE: "FAIR" INDICATES FEW OR NO CLOUDS BELOW 12,000 FEET WITH NO
       SIGNIFICANT WEATHER AND/OR OBSTRUCTIONS TO VISIBILITY.
       CURRENT SKY AND/OR WEATHER CONDITIONS ARE NOT AVAILABLE FOR
       CHILLICOTHE AND FARMINGTON.

MOZ001>031-035>038-043-044-053-054-040700-
...NORTHERN AND WESTERN MISSOURI...

CITY           SKY/WX    TMP DP  RH WIND       PRES   REMARKS
KANSAS CTY INT PTCLDY    68  58  70 E6        30.00S
6HR MIN TEMP:  68; 6HR MAX TEMP:  78;

KANSAS C DTWN  PTCLDY    70  59  68 N3        29.99S
6HR MIN TEMP:  70; 6HR MAX TEMP:  80; 6HR PCP: TRACE;

LEE`S SUMMIT   CLEAR     67  60  78 CALM      30.00S
6HR MIN TEMP:  67; 6HR MAX TEMP:  78;

ST JOSEPH      CLEAR     63  60  90 CALM      30.00S
6HR MIN TEMP:  63; 6HR MAX TEMP:  79;

CHILLICOTHE      N/A     63  61  93 CALM      30.00S
6HR MIN TEMP:  63; 6HR MAX TEMP:  79;

KIRKSVILLE     CLEAR     58  57  97 CALM      30.00S FOG
6HR MIN TEMP:  58; 6HR MAX TEMP:  76; 6HR PCP: TRACE;


$$
MOZ066>068-077>081-088>096-101>105-040700-
...SOUTHWEST MISSOURI...

CITY           SKY/WX    TMP DP  RH WIND       PRES   REMARKS
SPRINGFIELD    CLEAR     69  65  86 NE5       29.96F
6HR MIN TEMP:  69; 6HR MAX TEMP:  79;

JOPLIN         CLEAR     69  68  96 CALM      29.97S
6HR MIN TEMP:  69; 6HR MAX TEMP:  79;


$$
MOZ032>034-039>042-045>050-055>058-069>072-040700-
...CENTRAL MISSOURI...

CITY           SKY/WX    TMP DP  RH WIND       PRES   REMARKS
COLUMBIA       CLEAR     67  61  81 NE7       29.98S
6HR MIN TEMP:  66; 6HR MAX TEMP:  78;

JEFFERSON CITY CLEAR     66  62  87 W3        29.96F
6HR MIN TEMP:  65; 6HR MAX TEMP:  81;

ROLLA          CLEAR     65  62  90 NE5       29.96F
6HR MIN TEMP:  64; 6HR MAX TEMP:  77;

SEDALIA        CLEAR     65  61  87 N3        29.99F
6HR MIN TEMP:  65; 6HR MAX TEMP:  78;

OSAGE BEACH    CLEAR     64  61  88 NE3       29.97S

$$
MOZ051-052-059>065-040700-
...EAST CENTRAL MISSOURI...

CITY           SKY/WX    TMP DP  RH WIND       PRES   REMARKS
ST LOUIS INTL  CLEAR     73  65  75 CALM      29.96S HAZE
6HR MIN TEMP:  72; 6HR MAX TEMP:  80;

SPIRIT OF STL  CLEAR     66  66 100 CALM      29.95S FOG
6HR MIN TEMP:  66; 6HR MAX TEMP:  78;

ST CHARLES     CLEAR     69  67  93 CALM      29.95S FOG
6HR MIN TEMP:  67; 6HR MAX TEMP:  79;


$$
MOZ072>076-082>087-097>100-106>115-040700-
...SOUTH CENTRAL AND SOUTHEAST MISSOURI...

CITY           SKY/WX    TMP DP  RH WIND       PRES   REMARKS
CAPE GIRARDEAU CLEAR     68  68 100 S3        29.91F
6HR MIN TEMP:  68; 6HR MAX TEMP:  75; 6HR PCP:  0.01;

FARMINGTON     CLEAR     66  63  88 NW5       29.99S
6HR MIN TEMP:  66; 6HR MAX TEMP:  77;

POPLAR BLUFF   MOCLDY    71  69  93 CALM      29.91S
6HR MIN TEMP:  71; 6HR MAX TEMP:  80; 6HR PCP: TRACE;

WEST PLAINS    CLEAR     68  65  90 CALM      29.96S
6HR MIN TEMP:  68; 6HR MAX TEMP:  76;


$$



USA.gov is the U.S. government's official web portal to all federal, state and local government web resources and services.